K9APR Weather Reports


time (UTC)temp
F
wind
direction
speed
knots
gust
knots
rain 1hr
in
rain 24hr
in
rain mn
in
humidity
%
barometer
mb
20260509034125 54 245 1.7 2.6 0.16 0.46 0.46 89 1010.3
20260509033223 55 271 1.7 7.0 0.13 0.42 0.42 89 1010.7
20260509032324 55 218 6.1 8.7 0.13 0.40 0.40 89 1010.4
20260509031425 55 222 2.6 6.1 0.14 0.37 0.37 89 1010.5
20260509030525 55 257 2.6 6.1 0.14 0.35 0.35 90 1010.8
20260509025624 55 246 4.3 7.0 0.15 0.33 0.33 90 1010.7
20260509024724 55 231 1.7 4.3 0.14 0.31 0.31 90 1010.7
20260509022924 54 217 4.3 7.0 0.14 0.28 0.28 90 1010.9
20260509021125 54 210 4.3 7.0 0.10 0.22 0.22 90 1010.8
20260509020224 54 208 1.7 2.6 0.09 0.20 0.20 90 1010.7
20260509015325 54 194 1.7 1.7 0.08 0.18 0.18 90 1010.6
20260509014425 54 281 0.9 0.9 0.08 0.16 0.16 89 1010.7
20260509013525 54 230 1.7 4.3 0.08 0.15 0.15 89 1010.4
20260509012625 54 202 2.6 4.3 0.07 0.14 0.14 89 1010.3
20260509011723 54 222 0.9 1.7 0.07 0.13 0.13 89 1010.5
20260509005924 54 286 0.9 0.9 0.06 0.11 0.11 89 1010.4
20260509005024 54 226 0.0 1.7 0.04 0.09 0.09 88 1010.2
20260509004125 54 290 0.9 1.7 0.04 0.08 0.08 88 1010.2
20260509003259 54 235 0.9 0.9 0.04 0.07 0.07 88 1010.0
20260509003226 54 235 0.9 0.9 0.04 0.07 0.07 88 1010.0
20260509002324 54 281 0.9 1.7 0.05 0.07 0.07 87 1010.1
20260509001424 55 282 0.9 0.9 0.05 0.06 0.06 87 1010.2
20260509000523 55 291 1.7 2.6 0.05 0.05 0.05 86 1010.3
20260508235624 55 285 0.9 1.7 0.05 0.05 0.05 86 1010.4
20260508234725 55 293 1.7 1.7 0.04 0.04 0.04 85 1010.2
20260508233824 55 289 1.7 2.6 0.04 0.04 0.04 84 1010.2
20260508232924 56 322 0.0 0.9 0.03 0.03 0.03 83 1010.3
20260508232025 56 307 1.7 2.6 0.01 0.01 0.01 81 1010.3
20260508231125 56 307 2.6 4.3 0.01 0.01 0.01 80 1010.5
20260508230223 57 303 5.2 5.2 0.00 0.00 0.00 78 1010.3
20260508225324 57 298 7.0 8.7 0.00 0.00 0.00 75 1010.3
20260508224425 59 286 7.0 10.4 0.00 0.00 0.00 73 1010.3
20260508223525 60 292 8.7 10.4 0.00 0.00 0.00 69 1010.2
20260508222626 61 284 7.0 10.4 0.00 0.00 0.00 67 1010.1
20260508221725 62 281 0.9 2.6 0.00 0.00 0.00 69 1009.9
20260508220825 62 224 1.7 1.7 0.00 0.00 0.00 63 1009.6
20260508215924 62 137 0.9 1.7 0.00 0.00 0.00 62 1009.3
20260508215024 63 173 0.0 1.7 0.00 0.00 0.00 61 1009.3
20260508214125 63 223 0.9 1.7 0.00 0.00 0.00 60 1009.4
20260508213223 63 226 0.0 0.9 0.00 0.00 0.00 61 1009.4
20260508212324 63 229 0.9 0.9 0.00 0.00 0.00 59 1009.6
20260508211425 63 239 0.9 2.6 0.00 0.00 0.00 60 1009.6
20260508210525 63 215 1.7 1.7 0.00 0.00 0.00 58 1009.8
20260508205629 63 237 0.0 0.9 0.00 0.00 0.00 61 1010.0
20260508204723 63 250 0.9 1.7 0.00 0.00 0.00 60 1010.0
20260508203824 63 220 0.9 0.9 0.00 0.00 0.00 60 1010.0
20260508202925 63 235 1.7 2.6 0.00 0.00 0.00 60 1010.2
20260508201123 63 278 1.7 1.7 0.00 0.00 0.00 59 1010.6
20260508200224 63 236 5.2 7.8 0.00 0.00 0.00 58 1010.7
20260508195323 63 228 1.7 4.3 0.00 0.00 0.00 59 1010.8
20260508194424 63 227 6.1 7.0 0.00 0.00 0.00 56 1010.9
20260508193524 63 258 4.3 7.0 0.00 0.00 0.00 57 1011.0
20260508192625 63 221 4.3 7.8 0.00 0.00 0.00 58 1011.1
20260508191724 63 247 2.6 2.6 0.00 0.00 0.00 57 1011.2
20260508190825 63 189 4.3 7.8 0.00 0.00 0.00 58 1011.6
20260508185923 64 228 5.2 7.0 0.00 0.00 0.00 56 1011.7
20260508185023 64 230 5.2 7.8 0.00 0.00 0.00 57 1011.7
20260508184125 64 243 6.1 10.4 0.00 0.00 0.00 56 1011.7
20260508183224 64 242 6.1 10.4 0.00 0.00 0.00 54 1011.7
20260508182324 65 232 5.2 7.0 0.00 0.00 0.00 53 1011.7
20260508181424 65 267 4.3 6.1 0.00 0.00 0.00 56 1011.7
20260508180524 65 246 4.3 7.0 0.00 0.00 0.00 55 1011.9
20260508175623 64 250 7.0 10.4 0.00 0.00 0.00 53 1012.1
20260508174725 64 204 6.1 10.4 0.00 0.00 0.00 53 1012.2
20260508173824 63 226 7.0 12.2 0.00 0.00 0.00 55 1012.4
20260508172923 63 227 6.1 10.4 0.00 0.00 0.00 55 1012.6
20260508172025 63 260 4.3 7.0 0.00 0.00 0.00 59 1012.6
20260508171125 62 247 7.0 10.4 0.00 0.00 0.00 57 1012.8
20260508170224 62 258 0.9 2.6 0.00 0.00 0.00 60 1012.9
20260508165324 62 216 7.0 11.3 0.00 0.00 0.00 56 1013.0
20260508164424 62 221 4.3 7.0 0.00 0.00 0.00 59 1013.1
20260508163525 62 259 1.7 2.6 0.00 0.00 0.00 58 1013.2
20260508162624 62 253 5.2 7.0 0.00 0.00 0.00 58 1013.4
20260508161723 63 224 5.2 8.7 0.00 0.00 0.00 57 1013.6
20260508160823 63 267 6.1 8.7 0.00 0.00 0.00 59 1013.5
20260508155924 63 239 2.6 7.0 0.00 0.00 0.00 61 1013.6
20260508155024 62 246 5.2 10.4 0.00 0.00 0.00 61 1013.6
20260508154124 63 238 5.2 8.7 0.00 0.00 0.00 59 1013.7
20260508153223 63 253 6.1 10.4 0.00 0.00 0.00 58 1013.7
20260508151423 61 223 6.1 11.3 0.00 0.00 0.00 60 1013.7
20260508150524 61 247 7.0 10.4 0.00 0.00 0.00 59 1013.8
20260508145623 60 251 7.0 10.4 0.00 0.00 0.00 59 1013.9
20260508144723 60 265 2.6 6.1 0.00 0.00 0.00 61 1014.0
20260508143824 59 252 4.3 11.3 0.00 0.00 0.00 62 1014.1
20260508142923 59 269 5.2 5.2 0.00 0.00 0.00 61 1014.2
20260508142027 58 269 4.3 6.1 0.00 0.00 0.00 62 1014.3
20260508141127 57 270 5.2 5.2 0.00 0.00 0.00 62 1014.4
20260508140224 56 251 7.0 10.4 0.00 0.00 0.00 61 1014.5
20260508135324 56 256 4.3 6.1 0.00 0.00 0.00 63 1014.5
20260508134423 55 251 6.1 10.4 0.00 0.00 0.00 62 1014.4
20260508133523 55 254 2.6 7.0 0.00 0.00 0.00 65 1014.5
20260508132623 54 281 2.6 7.0 0.00 0.00 0.00 68 1014.6
20260508131723 53 279 2.6 2.6 0.00 0.00 0.00 68 1014.7
20260508130827 52 281 1.7 5.2 0.00 0.00 0.00 68 1014.6
20260508125923 51 273 2.6 2.6 0.00 0.00 0.00 70 1014.6
20260508125117 51 262 1.7 2.6 0.00 0.00 0.00 72 1014.7
20260508124126 50 269 1.7 2.6 0.00 0.00 0.00 72 1014.6
20260508123223 50 231 2.6 5.2 0.00 0.00 0.00 72 1014.5
20260508122323 49 274 1.7 4.3 0.00 0.00 0.00 73 1014.6
20260508121423 48 223 2.6 2.6 0.00 0.00 0.00 73 1014.4
20260508120524 48 259 0.9 2.6 0.00 0.00 0.00 73 1014.5
20260508115624 47 304 0.0 0.9 0.00 0.00 0.00 75 1014.5
20260508114724 47 150 0.9 0.9 0.00 0.00 0.00 73 1014.5
20260508113856 48 254 1.7 2.6 0.00 0.00 0.00 71 1014.5
20260508113824 48 254 1.7 2.6 0.00 0.00 0.00 71 1014.5
20260508112926 47 188 1.7 2.6 0.00 0.00 0.00 71 1014.2
20260508111124 47 138 0.9 4.3 0.00 0.00 0.00 71 1014.1
20260508110224 48 217 2.6 2.6 0.00 0.00 0.00 71 1014.3
20260508105323 48 172 1.7 2.6 0.00 0.00 0.00 71 1014.2
20260508104424 47 165 0.9 2.6 0.00 0.00 0.00 71 1014.0
20260508103524 48 145 0.9 1.7 0.00 0.00 0.00 70 1013.9
20260508102623 48 182 1.7 2.6 0.00 0.00 0.00 70 1014.0
20260508101724 48 186 1.7 4.3 0.00 0.00 0.00 70 1014.1
20260508100826 48 189 0.9 2.6 0.00 0.00 0.00 70 1014.0
20260508095925 49 224 1.7 4.3 0.00 0.00 0.00 69 1014.0
20260508095024 49 235 1.7 4.3 0.00 0.00 0.00 68 1013.9
20260508094124 49 212 1.7 5.2 0.00 0.00 0.00 67 1013.8
20260508093224 49 234 2.6 4.3 0.00 0.00 0.00 68 1014.0
20260508092324 49 232 1.7 4.3 0.00 0.00 0.00 68 1014.2
20260508091424 49 229 0.9 2.6 0.00 0.00 0.00 68 1014.1
20260508090523 49 251 0.9 2.6 0.00 0.00 0.00 68 1014.2
20260508085624 49 241 0.9 1.7 0.00 0.00 0.00 68 1014.3
20260508084723 48 264 0.9 1.7 0.00 0.00 0.00 69 1014.3
20260508083823 48 262 0.9 2.6 0.00 0.00 0.00 69 1014.3
20260508082923 48 243 1.7 4.3 0.00 0.00 0.00 69 1014.4
20260508082023 48 262 0.9 2.6 0.00 0.00 0.00 70 1014.4
20260508081124 48 256 0.0 1.7 0.00 0.00 0.00 71 1014.3
20260508080225 49 291 0.9 2.6 0.00 0.00 0.00 71 1014.4
20260508075323 49 243 0.9 2.6 0.00 0.00 0.00 68 1014.2
20260508074424 49 241 2.6 4.3 0.00 0.00 0.00 69 1014.3
20260508073523 48 264 0.9 2.6 0.00 0.00 0.00 71 1014.4
20260508072624 49 259 0.9 2.6 0.00 0.00 0.00 69 1014.4
20260508071727 48 245 1.7 2.6 0.00 0.00 0.00 68 1014.5
20260508070824 48 251 0.9 1.7 0.00 0.00 0.00 69 1014.5
20260508065924 48 243 0.9 1.7 0.00 0.00 0.00 68 1014.6
20260508065023 48 217 0.0 0.9 0.00 0.00 0.00 68 1014.6
20260508064123 48 203 1.7 4.3 0.00 0.00 0.00 67 1014.8
20260508063224 48 197 0.9 2.6 0.00 0.00 0.00 67 1014.8
20260508062324 48 233 1.7 2.6 0.00 0.00 0.00 67 1014.8
20260508061426 48 234 1.7 2.6 0.00 0.00 0.00 68 1014.8
20260508060523 48 209 1.7 2.6 0.00 0.00 0.00 67 1014.8
20260508055701 49 219 0.9 4.3 0.00 0.00 0.00 67 1014.8
20260508055625 49 219 0.9 4.3 0.00 0.00 0.00 67 1014.8
20260508054724 48 218 0.9 2.6 0.00 0.00 0.00 67 1014.8
20260508053824 49 227 0.9 1.7 0.00 0.00 0.00 67 1014.9
20260508052923 49 217 0.9 2.6 0.00 0.00 0.00 67 1014.9
20260508052023 49 219 0.0 1.7 0.00 0.00 0.00 66 1015.0
20260508051124 49 229 2.6 4.3 0.00 0.00 0.00 66 1015.1
20260508050223 49 212 0.9 1.7 0.00 0.00 0.00 66 1015.0
20260508045323 49 210 1.7 2.6 0.00 0.00 0.00 66 1015.0
20260508044424 50 205 0.9 1.7 0.00 0.00 0.00 66 1015.1
20260508043523 50 189 0.9 2.6 0.00 0.00 0.00 66 1015.1
20260508042623 50 207 1.7 2.6 0.00 0.00 0.00 66 1015.1
20260508041724 50 160 1.7 2.6 0.00 0.00 0.00 66 1015.0
20260508040854 50 174 0.9 1.7 0.00 0.00 0.00 66 1015.0
20260508040822 50 174 0.9 1.7 0.00 0.00 0.00 66 1015.0
20260508035924 50 229 0.9 1.7 0.00 0.00 0.00 67 1015.0
20260508035026 51 158 0.9 0.9 0.00 0.00 0.00 66 1015.0